Regional Weather Roundup
Issued by NWS Goodland, KS

Home | Current Version | Previous Version | Text Only | Print | Product List | Glossary Off
Versions: 1 2 3 4 5 6 7 8 9 10 11 12 13 14 15 16 17 18 19 20 21 22 23 24 25 26 27 28 29 30 31 32 33 34 35 36 37 38 39 40 41 42 43 44 45 46 47 48 49 50

000
ASUS43 KGLD 052108
RWRGLD

GOODLAND FORECAST AREA HOURLY WEATHER ROUNDUP
NATIONAL WEATHER SERVICE GOODLAND KS
300 PM MDT SUN JUL 05 2015

...OFFICIAL OBSERVATIONS...

CITY           SKY/WX    TMP DP  RH WIND       PRES   REMARKS
GOODLAND KS    SUNNY     97  49  19 S16G24    29.81F
HILL CITY KS   SUNNY    103  60  24 SW22G32   29.77F HX 104
IMPERIAL NEB   SUNNY    101  56  22 S10G17    29.77F HX 100
MCCOOK NEB     SUNNY    101  56  22 S12G22    29.73F HX 100
AKRON CO       PTSUNNY   91  51  25 VRB5      29.87F
BURLINGTON CO  MOSUNNY   96  47  18 S20G25    29.86F
LIMON CO       PTSUNNY   85  50  29 S13G21    29.95F
$$

...UNOFFICIAL OBSERVATIONS...

CITY           SKY/WX    TMP DP  RH WIND       PRES   REMARKS
COLBY KS       SUNNY    104  57  21 S17G23    29.79F HX 103
GOVE KS          N/A    100  32   9 MISG        N/A
NORTON KS      SUNNY    100  52  19 S15G26    29.74
SHARON SPRINGS   N/A    100  58  24 S18G26      N/A
KIT CARSON CO    N/A     95  55  25 MISG        N/A
$$



USA.gov is the U.S. government's official web portal to all federal, state and local government web resources and services.